PDT,Max TemperatureF,Mean TemperatureF,Min TemperatureF,Max Dew PointF,MeanDew PointF,Min DewpointF,Max Humidity, Mean Humidity, Min Humidity, Max Sea Level PressureIn, Mean Sea Level PressureIn, Min Sea Level PressureIn, Max VisibilityMiles, Mean VisibilityMiles, Min VisibilityMiles, Max Wind SpeedMPH, Mean Wind SpeedMPH, Max Gust SpeedMPH,PrecipitationIn, CloudCover, Events, WindDirDegrees
2013-10-1,61,53,46,54,50,45,100,82,57,30.23,30.14,30.05,10,10,4,9,6,16,0.26,4,,195
2013-10-2,61,52,43,54,47,41,100,92,64,30.24,30.17,30.14,10,9,1,13,7,17,0.04,4,,166
2013-10-3,61,53,45,52,48,43,100,88,64,30.39,30.34,30.24,10,8,0,17,7,20,0.00,3,,103
2013-10-4,70,56,41,54,48,43,100,84,42,30.40,30.34,30.29,10,10,2,17,5,,0.00,0,,11
2013-10-5,75,59,43,54,46,34,100,74,28,30.28,30.19,30.12,10,10,10,8,3,,0.00,0,,186
2013-10-6,73,61,48,55,50,37,100,77,27,30.12,30.06,30.04,10,10,10,16,9,22,0.00,1,,172
2013-10-7,63,56,48,55,53,48,100,88,69,30.21,30.15,30.06,10,9,3,10,5,18,0.19,6,,318
2013-10-8,57,52,46,54,51,46,100,96,86,30.22,30.14,30.04,10,9,1,13,5,17,0.24,7,,127
2013-10-9,61,52,43,52,47,43,100,87,64,30.06,30.02,29.99,10,8,0,16,6,23,0.00,2,,27
2013-10-10,61,53,45,54,49,43,100,87,64,30.12,30.04,29.98,10,10,9,16,8,23,0.00,4,,78
2013-10-11,61,54,46,50,48,43,100,81,53,30.15,30.14,30.12,10,10,8,14,6,,0.00,4,,13
2013-10-12,57,51,45,52,49,45,100,93,77,30.16,30.12,30.09,10,10,2,12,5,,0.01,5,,106
2013-10-13,59,51,43,52,48,41,100,91,72,30.27,30.22,30.16,10,8,0,21,6,25,0.00,2,,16
2013-10-14,64,53,41,54,48,41,100,87,60,30.30,30.26,30.22,10,10,0,20,5,25,0.00,0,,7
2013-10-15,68,55,41,50,46,37,100,79,32,30.24,30.16,30.09,10,9,2,18,6,24,0.00,0,,16
2013-10-16,63,52,41,54,49,41,100,89,60,30.17,30.12,30.08,10,10,2,16,6,23,0.00,0,,3
2013-10-17,61,54,46,54,51,46,100,95,78,30.19,30.15,30.11,10,6,0,24,7,30,0.00,4,,18
2013-10-18,70,57,43,55,49,43,100,86,59,30.11,30.08,30.04,10,7,0,14,3,,0.00,2,,336
2013-10-19,61,52,43,54,50,43,100,94,72,30.15,30.11,30.08,10,8,0,13,5,16,0.00,2,,6
2013-10-20,55,51,46,54,49,46,100,98,86,30.14,30.09,30.05,10,2,0,14,5,20,0.00,7,,5
2013-10-21,54,50,46,52,48,45,100,98,93,30.06,30.03,29.99,10,1,0,7,3,,0.00,8,,3
2013-10-22,52,50,48,52,49,48,100,98,93,30.06,30.04,30.02,10,7,1,7,3,,0.00,8,,132
2013-10-23,52,50,48,52,50,46,100,99,93,30.05,30.02,30.00,10,8,1,8,4,,0.00,8,,18
2013-10-24,54,51,48,54,51,48,100,98,93,30.13,30.06,30.01,10,8,2,8,3,,0.00,8,,39
2013-10-25,55,54,52,54,52,50,100,98,93,30.24,30.21,30.14,10,8,1,8,2,,0.00,8,,11
2013-10-26,55,50,45,54,49,45,100,94,83,30.23,30.21,30.18,10,7,0,22,8,27,0.00,4,,10
2013-10-27,55,50,45,54,50,45,100,93,83,30.18,30.02,29.86,10,8,0,14,6,20,0.02,7,,340
2013-10-28,57,49,41,50,45,41,100,88,62,29.88,29.82,29.77,10,6,0,15,4,,0.00,4,,67
2013-10-29,55,46,36,46,41,34,100,86,55,30.09,29.98,29.89,10,10,10,8,3,,0.00,0,,218
2013-10-30,55,46,36,48,43,36,100,90,66,30.22,30.17,30.09,10,10,7,9,5,,0.00,2,,163
2013-10-31,61,55,48,55,50,46,100,90,75,30.25,30.23,30.21,10,8,0,8,4,,0.00,8,,150